(277515) = 2001 YF152 = 2005 WB189

Discovered at Socorro on 2005-11-30 by LINEAR.

Orbit

Orbit type: Main Belt

Note: WebGL enabled browser required.

epoch2024-03-31.0
epoch JD2460400.5
perihelion date2022-12-27.83801
perihelion JD2459941.33802
argument of perihelion (°)5.30389
ascending node (°)78.69281
inclination (°)22.82010
eccentricity0.0307905
perihelion distance (AU)2.5375027
Tisserand w.r.t. Jupiter3.3
ΔV w.r.t. Earth (km/sec)12.4
semimajor axis (AU)2.6181158
mean anomaly (°)106.82840
mean daily motion (°/day)0.23265950
aphelion distance (AU)2.699
period (years)4.24
P-vector [x]0.11168061
P-vector [y]0.89688814
P-vector [z]0.42792417
Q-vector [x]-0.91809096
Q-vector [y]-0.07167767
Q-vector [z]0.38983497
absolute magnitude16.16
phase slope0.15
uncertainty0
referenceE2024-H23
observations used321
oppositions15
arc length (days)8154
first opposition used2001
last opposition used2024
residual rms (arc-secs)0.71
perturbers coarse indicatorM-v
perturbers precise indicator003Ek
first observation date used2001-12-19.0
last observation date used2024-04-16.0
computer nameMPCLINUX
JD of orbit computation2456639.544015
perihelion JD uncertainty (days)7.2220E-04
argument of perihelion uncertainty (°)1.7016E-04
ascending node uncertainty (°)2.0779E-05
inclination uncertainty (°)9.5932E-06
eccentricity uncertainty 1.0525E-07
perihelion distance uncertainty (AU)2.9681E-07
Minimum Orbit Intersection Distances (in AU)
for orbit epoch: 2460400.5, reference: E2024-H23
Mercury2.2289
Venus1.8174
Earth1.55383
Mars0.9731
Jupiter2.50954
Saturn6.51214
Uranus16.0519
Neptune27.3253

Observations

322 total observations over interval: 2001 12 19.30069 – 2024 03 19.346218
These data are available for download (format description).

Date (UT) J2000 RA J2000 Dec Magn Location Ref
2001 12 19.30069 06 59 39.96 +34 32 21.2 19.4   644 – Palomar Mountain/NEAT MPS 57269
2001 12 19.30297 06 59 39.83 +34 32 22.7 18.8   644 – Palomar Mountain/NEAT MPS 57269
2001 12 19.31472 06 59 39.04 +34 32 31.4 19.2   644 – Palomar Mountain/NEAT MPS 57269
2001 12 19.33237 06 59 37.80 +34 32 43.7 19.5   644 – Palomar Mountain/NEAT MPS 57269
2001 12 19.33943 06 59 37.35 +34 32 49.0 19.2   644 – Palomar Mountain/NEAT MPS 57269
2001 12 19.38272 06 59 34.41 +34 33 19.4 19.6   644 – Palomar Mountain/NEAT MPS 57269
2001 12 22.29281 06 56 19.00 +35 07 01.8 19.2   704 – Lincoln Laboratory ETS, New Mexico MPS 57269
2001 12 22.30791 06 56 18.00 +35 07 11.6 19.7   704 – Lincoln Laboratory ETS, New Mexico MPS 57269
2001 12 22.32302 06 56 16.85 +35 07 21.9 19.6   704 – Lincoln Laboratory ETS, New Mexico MPS 57269
2001 12 22.35325 06 56 14.68 +35 07 42.0 19.3   704 – Lincoln Laboratory ETS, New Mexico MPS 57269
2003 04 25.361600 14 53 51.428 +09 34 05.65 20.24 V 645 – Apache Point-Sloan Digital Sky Survey MPS 156156
2003 04 25.365072 14 53 51.209 +09 34 05.58 21.08   645 – Apache Point-Sloan Digital Sky Survey MPS 156156
2005 11 03.41628 05 23 58.34 +15 27 24.8 19.5 V G96 – Mt. Lemmon Survey MPS 156156
2005 11 03.42164 05 23 58.16 +15 27 26.7 19.3 V G96 – Mt. Lemmon Survey MPS 156156
2005 11 03.42699 05 23 57.98 +15 27 28.4 19.3 V G96 – Mt. Lemmon Survey MPS 156156
2005 11 03.43233 05 23 57.80 +15 27 30.3 19.4 V G96 – Mt. Lemmon Survey MPS 156156
2005 11 06.35380 05 22 15.49 +15 44 19.7 20.5   704 – Lincoln Laboratory ETS, New Mexico MPS 156156
2005 11 06.36641 05 22 14.97 +15 44 24.0 20.3   704 – Lincoln Laboratory ETS, New Mexico MPS 156156
2005 11 06.37876 05 22 14.39 +15 44 26.6 20.2   704 – Lincoln Laboratory ETS, New Mexico MPS 156156
2005 11 30.31649 04 59 35.65 +18 26 22.4 19.4   704 – Lincoln Laboratory ETS, New Mexico MPS 155472
2005 11 30.32928 04 59 34.71 +18 26 28.4 19.4   704 – Lincoln Laboratory ETS, New Mexico MPS 155472
2005 11 30.34224 04 59 33.80 +18 26 34.1 19.6   704 – Lincoln Laboratory ETS, New Mexico MPS 155472
2005 12 07.14892 04 51 21.44 +19 17 20.0 19.6 V 691 – Steward Observatory, Kitt Peak-Spacewatch MPS 155472
2005 12 07.17153 04 51 19.75 +19 17 30.4 19.6 V 691 – Steward Observatory, Kitt Peak-Spacewatch MPS 155472
2005 12 07.19428 04 51 18.05 +19 17 40.7 19.6 V 691 – Steward Observatory, Kitt Peak-Spacewatch MPS 155472
2005 12 07.26563 04 51 12.64 +19 18 12.9 19.5   704 – Lincoln Laboratory ETS, New Mexico MPS 155472
2005 12 07.27947 04 51 11.53 +19 18 19.2 19.3   704 – Lincoln Laboratory ETS, New Mexico MPS 155472
2005 12 07.29234 04 51 10.63 +19 18 24.3 19.8   704 – Lincoln Laboratory ETS, New Mexico MPS 155472
2005 12 07.30505 04 51 09.73 +19 18 30.7 19.7   704 – Lincoln Laboratory ETS, New Mexico MPS 155472
2005 12 07.31783 04 51 08.72 +19 18 36.1 19.8   704 – Lincoln Laboratory ETS, New Mexico MPS 155472
2005 12 25.24294 04 30 36.03 +21 31 02.6 19.8 V G96 – Mt. Lemmon Survey MPS 156658
2005 12 25.25075 04 30 35.56 +21 31 06.2 19.6 V G96 – Mt. Lemmon Survey MPS 156658
2005 12 25.25855 04 30 35.10 +21 31 09.2 19.6 V G96 – Mt. Lemmon Survey MPS 156658
2005 12 25.26635 04 30 34.59 +21 31 12.5 19.8 V G96 – Mt. Lemmon Survey MPS 156658
2005 12 27.23751 04 28 38.82 +21 45 17.3 19.3 V G96 – Mt. Lemmon Survey MPS 156658
2005 12 27.24279 04 28 38.53 +21 45 19.5 19.4 V G96 – Mt. Lemmon Survey MPS 156658
2005 12 27.24808 04 28 38.17 +21 45 21.9 19.1 V G96 – Mt. Lemmon Survey MPS 156658
2005 12 27.25336 04 28 37.88 +21 45 23.7 19.1 V G96 – Mt. Lemmon Survey MPS 156658
2006 02 01.12427 04 14 22.81 +25 43 15.5 20.6 V G96 – Mt. Lemmon Survey MPS 161844
2006 02 01.13023 04 14 22.81 +25 43 17.6 20.4 V G96 – Mt. Lemmon Survey MPS 161845
2006 02 01.13620 04 14 22.92 +25 43 20.4 20.5 V G96 – Mt. Lemmon Survey MPS 161845
2006 02 01.14218 04 14 22.95 +25 43 22.2 20.1 V G96 – Mt. Lemmon Survey MPS 161845
2007 03 16.32120 13 49 52.46 +24 40 31.0 20.0 V 703 – Catalina Sky Survey MPS 204634
2007 03 16.32919 13 49 52.10 +24 40 33.2 19.3 V 703 – Catalina Sky Survey MPS 204634
2007 03 16.33725 13 49 51.81 +24 40 36.5 21.3 V 703 – Catalina Sky Survey MPS 204634
2007 03 16.34524 13 49 51.38 +24 40 40.6 19.7 V 703 – Catalina Sky Survey MPS 204634
2009 10 15.38596 03 48 16.16 -02 18 43.3 19.1 V 703 – Catalina Sky Survey MPS 299409
2009 10 15.39314 03 48 15.80 -02 18 44.6 19.7 V 703 – Catalina Sky Survey MPS 299409
2009 10 15.40054 03 48 15.40 -02 18 44.7 19.1 V 703 – Catalina Sky Survey MPS 299409
2009 10 15.40781 03 48 15.19 -02 18 44.6 19.3 V 703 – Catalina Sky Survey MPS 299409
2009 10 27.07956 03 38 51.79 -02 18 13.1 19.1 V J75 – OAM Observatory, La Sagra MPS 300710
2009 10 27.09137 03 38 51.12 -02 18 12.5 19.3 V J75 – OAM Observatory, La Sagra MPS 300710
2009 10 27.10316 03 38 50.43 -02 18 11.7 19.5 V J75 – OAM Observatory, La Sagra MPS 300710
2009 11 17.33638 03 16 02.20 -01 18 18.2 19.3 V 703 – Catalina Sky Survey MPS 303329
2009 11 17.34396 03 16 01.81 -01 18 15.7 19.4 V 703 – Catalina Sky Survey MPS 303329
2009 11 17.35171 03 16 01.23 -01 18 13.9 19.5 V 703 – Catalina Sky Survey MPS 303329
2009 12 15.15573 02 50 33.72 +02 10 18.2 19.6 V 703 – Catalina Sky Survey MPS 307313
2009 12 15.16260 02 50 33.46 +02 10 22.5 20.1 V 703 – Catalina Sky Survey MPS 307313
2009 12 15.16954 02 50 33.07 +02 10 26.0 19.6 V 703 – Catalina Sky Survey MPS 307313
2009 12 15.17643 02 50 32.96 +02 10 29.2 19.6 V 703 – Catalina Sky Survey MPS 307313
2010 01 29.021973 02 51 58.157 +10 24 46.98   C51 – WISE MPS 903887
2010 01 29.154278 02 52 03.005 +10 26 16.26   C51 – WISE MPS 903887
2010 01 29.154405 02 52 03.132 +10 26 17.05   C51 – WISE MPS 903887
2010 01 29.419014 02 52 12.80 +10 29 21.6   C51 – WISE MPS 341839
2010 01 29.485230 02 52 15.23 +10 30 04.7   C51 – WISE MPS 341839
2010 01 29.683750 02 52 22.54 +10 32 22.6   C51 – WISE MPS 341839
2010 01 29.816054 02 52 27.626 +10 33 57.85   C51 – WISE MPS 903887
2010 01 29.882271 02 52 29.983 +10 34 39.18   C51 – WISE MPS 903887
2010 01 30.146878 02 52 40.04 +10 37 41.5   C51 – WISE MPS 341839
2010 01 30.27918 02 52 44.96 +10 39 11.2   C51 – WISE MPS 341839
2011 02 12.35560 12 14 54.56 +36 02 48.3 19.3 V 703 – Catalina Sky Survey MPS 369516
2011 02 12.36196 12 14 54.38 +36 02 50.0 20.2 V 703 – Catalina Sky Survey MPS 369516
2011 02 12.36832 12 14 54.13 +36 02 55.6 19.8 V 703 – Catalina Sky Survey MPS 369516
2011 02 12.37471 12 14 53.84 +36 02 58.0 20.8 V 703 – Catalina Sky Survey MPS 369517
2011 03 14.42795 11 49 52.241 +40 09 33.08 20.1 i F51 – Pan-STARRS 1, Haleakala MPS 381197
2011 03 14.44105 11 49 51.371 +40 09 35.82 20.0 i F51 – Pan-STARRS 1, Haleakala MPS 381198
2011 03 14.46606 11 49 49.730 +40 09 41.06 20.1 r F51 – Pan-STARRS 1, Haleakala MPS 381198
2013 10 11.37393 02 06 00.98 -21 00 59.5 19.5 G G45 – Space Surveillance Telescope, Atom Site MPS 1608821
2013 10 11.39081 02 05 59.93 -21 01 01.1 19.6 G G45 – Space Surveillance Telescope, Atom Site MPS 1608821
2013 10 11.41121 02 05 58.62 -21 01 03.8 19.6 G G45 – Space Surveillance Telescope, Atom Site MPS 1608821
2013 10 11.42632 02 05 57.71 -21 01 05.4 19.8 G G45 – Space Surveillance Telescope, Atom Site MPS 1608821
2013 10 11.45396 02 05 56.03 -21 01 08.0 19.7 G G45 – Space Surveillance Telescope, Atom Site MPS 1608821
2013 10 21.44844 01 55 29.876 -21 05 33.26 19.8 i F51 – Pan-STARRS 1, Haleakala MPS 483465
2013 10 21.44912 01 55 29.830 -21 05 33.22 19.7 i F51 – Pan-STARRS 1, Haleakala MPS 483465
2013 10 21.46147 01 55 29.016 -21 05 32.28 19.8 i F51 – Pan-STARRS 1, Haleakala MPS 483465
2013 10 21.46214 01 55 28.969 -21 05 32.26 19.8 i F51 – Pan-STARRS 1, Haleakala MPS 483465
2013 11 10.22559 01 35 55.74 -19 39 27.6 19.9 V 703 – Catalina Sky Survey MPS 488290
2013 11 10.23567 01 35 55.20 -19 39 22.3 19.5 V 703 – Catalina Sky Survey MPS 488290
2013 11 10.24072 01 35 54.99 -19 39 20.2 19.9 V 703 – Catalina Sky Survey MPS 488290
2013 11 28.27390 01 24 37.468 -16 44 17.32 20.3 r F51 – Pan-STARRS 1, Haleakala MPS 489784
2013 11 28.28601 01 24 37.153 -16 44 08.84 20.2 r F51 – Pan-STARRS 1, Haleakala MPS 489784
2015 01 12.54987 10 06 17.885 +40 45 04.00 20.0 i F51 – Pan-STARRS 1, Haleakala MPS 586900
